Location: Lafig�re
(44.4503°N, 4.0357°E)
Time: 07:52:12
(UTC+00:00)

Cosmos 1092 Rocket - Pass Details

Date: 24 January 2021
Orbit: 954 x 994 km, 83.0° (Epoch: 08 March)

Event Time Altitude Azimuth Distance (km) Brightness Sun altitude
Rises 05:00:10 0° 354° (N) 3,644 6.9 -23.1°
Reaches altitude 10° 05:02:43 10° 359° (N) 2,695 6.2 -22.6°
Maximum altitude 05:08:48 60° 79° (ENE) 1,090 4.5 -21.6°
Drops below altitude 10° 05:14:53 10° 159° (SSE) 2,695 6.7 -20.5°
Sets 05:17:25 0° 163° (SSE) 3,643 7.3 -20.0°
